OBJECT A, 66409

Orbit data source: Space-Track

You're viewing an Uncataloged Satellite

Recently launched and/or uncataloged satellites may have evolving metadata. Metadata may include but not limited to: Owner, Maufacturer, Bus, Motor, and Mission.

OBJECT A, 66409 is a satellite owned by CASIC (CN) in SSO that was launched on Sun, 09 Nov 2025 UTC via a LIJIAN-1 launch vehicle from the Jiuquan Satellite Launch Center, China (JSC). Unknown objects in Earth's orbit typically refer to objects detected orbiting the Earth but have not yet been identified or cataloged. These objects could be anything from previously untracked satellites, spent rocket stages, debris from satellite collisions, or even natural meteoroids temporarily captured by Earth's gravity.

Loading next visibility...
Identifier
66409, 2025-256A
Orbit
SSO
Country
Flag of CNCN / PRC
Related business
Manufacturer
CASIC
Mission
Operational Civil Imaging
Bus & Motor
CHUTIAN, Unknown motor
Mass
~150 kg wet, ~150 kg dry
Launch date (UTC)
2025-11-09 (7 months ago)
Launch vehicle
LIJIAN-1
Launch site
Jiuquan Satellite Launch Center, China (JSC)
Object type
Unknown
Shape & HBR
Box + 2 Pan, 1.1 m
Radar Cross Section
1.038 m², Large (>1 m²)

Expand to show TLE details & history
Last TLE update: 4 days ago

TLE from 4 days ago
0 OBJECT A
1 66409U 25256A   26167.68551025  .00000392  00000-0  11204-3 0  9994
2 66409  98.2552 233.8767 0013718 343.8275  16.2480 14.50200142 31820
Epoch: 2026-06-16T16:27Z
TLE epoch observation values (Epoch: 2026-06-16T16:27:08.085Z)
Latitude
-0.00002°
Longitude
82.13902°
Altitude
718.609 km
Speed
7.501 km/s
True Right ascension
15h 35m 30s
True Declination
0° 00' 00"
Sunlit
Object was in full shadow at epoch
Visualization orbit readout
Latitude
Unknown
Longitude
Unknown
Altitude
Unknown
Speed
Unknown
Apparent Right ascension
Unknown
Apparent Declination
Unknown
Sunlit
N/A
Visualization observer readout
Local Sidereal Time
07:15:13
Azimuth
Unknown
Elevation
Unknown
Doppler factor
Unknown
Orbital elements
Apogee altitude
731.832 km
Perigee altitude
712.352 km
Semi-major axis
7,100.229 km
Eccentricity
0.00137
Inclination
98.2552°
RAAN
233.8767°
Arg. of periapsis
343.8275°
True anomaly
16.29206°
Mean anomaly
16.248°
Eccentric anomaly
16.27002°
Mean motion
3.62773 °/min
Orbital period
99.24 mins
BSTAR
0.00011204
Loading maneuver chart data...
Computing Atmospheric mass density...
Loading historical data...
Loading historical data...
Loading historical data...
Loading historical data...
Loading historical data...
Loading historical data...
Loading historical data...
Other satellites on launch #256 in the year 2025 (2025-11-09 UTC)

Documentation

Showing up to 5 results
|